Location: Eferding
(48.3167°N, 14.0167°E)
Time: 08:46:54
(UTC+00:00)

H-2A R/B - Pass Details

Date: 12 November 2019
Orbit: 500 x 543 km, 97.3° (Epoch: 03 December)

Event Time Altitude Azimuth Distance (km) Brightness Sun altitude
Rises 16:16:15 0° 159° (SSE) 2,680 6.3 -8.0°
Reaches altitude 10° 16:18:22 10° 157° (SSE) 1,788 5.4 -8.4°
Maximum altitude 16:22:12 68° 74° (ENE) 577 2.7 -9.0°
Drops below altitude 10° 16:26:02 10° 352° (N) 1,780 5.3 -9.6°
Sets 16:28:08 0° 350° (N) 2,667 6.3 -9.9°
